Weather History for Watford City, ND

Change the Weather History Date:

Tuesday, January 8, 2013

  Actual Average (KISN) Record (KISN)
Temperature  
Mean Temperature 22 °F 10 °F  
Max Temperature 35 °F 21 °F 50 °F (2002)
Min Temperature 10 °F 1 °F -35 °F (1909)
Degree Days  
Heating Degree Days 42 55  
Month to date heating degree days 437  
Since 1 July heating degree days 4184  
Cooling Degree Days 0 0  
Month to date cooling degree days 0  
Year to date cooling degree days 0  
Moisture  
Dew Point 24 °F    
Average Humidity 79    
Maximum Humidity 100    
Minimum Humidity 65    
Precipitation  
Precipitation 0.00 in 0.02 in 0.37 in (2009)
Month to date precipitation 0.17  
Year to date precipitation 0.17  
Sea Level Pressure  
Sea Level Pressure 29.68 in    
Wind  
Wind Speed 11 mph (West)    
Max Wind Speed 24 mph    
Max Gust Speed 37 mph    
Visibility 9 miles    
Events Rain , Snow    
T = Trace of Precipitation, MM = Missing Value Source: NWS Daily Summary

Daily Weather History Graph

Daily Weather History Graph

Search for Another Location

Airport:

Trip Planner

Search our weather history database for the weather conditions in past years. The results will help you decide how hot, cold, wet, or windy it might be!

Date:

Astronomy

Jan. 08, 2013 Rise Set
Actual Time 8:40 AM CST 5:19 PM CST
Civil Twilight 8:05 AM CST 5:54 PM CST
Nautical Twilight 7:26 AM CST 6:33 PM CST
Astronomical Twilight 6:48 AM CST 7:11 PM CST
Moon 5:14 AM CST (1/8) 2:24 PM CST (1/8)
Length of Visible Light 9h 49m
Length of Day
8h 38m
Waning Crescent, 13% of the Moon is Illuminated
Jan 8
Waning Crescent
Jan 11
New
Jan 18
First Quarter
Jan 26
Full
Feb 3
Last Quarter

Hourly Weather History & Observations

Time (CST) Temp. Windchill Dew Point Humidity Pressure Visibility Wind Dir Wind Speed Gust Speed Precip Events Conditions
12:15 AM 10.4 °F 4.0 °F 6.8 °F 85% 29.64 in 10.0 mi ESE 3.5 mph - N/A   Overcast
12:35 AM 17.6 °F 6.4 °F 15.8 °F 93% 29.62 in 10.0 mi ESE 9.2 mph - N/A   Overcast
12:55 AM 19.4 °F 11.5 °F 15.8 °F 86% 29.61 in 10.0 mi SE 5.8 mph - N/A   Overcast
1:15 AM 15.8 °F - 12.2 °F 86% 29.61 in 10.0 mi Calm Calm - N/A   Mostly Cloudy
1:35 AM 17.6 °F - 14.0 °F 86% 29.61 in 10.0 mi Calm Calm - N/A   Partly Cloudy
1:55 AM 17.6 °F - 14.0 °F 86% 29.60 in 10.0 mi Calm Calm - N/A   Partly Cloudy
2:15 AM 17.6 °F - 15.8 °F 93% 29.60 in 10.0 mi Calm Calm - N/A   Partly Cloudy
2:35 AM 19.4 °F - 15.8 °F 86% 29.60 in 10.0 mi Calm Calm - N/A Snow Light Snow
2:55 AM 32.0 °F 21.6 °F 26.6 °F 80% 29.59 in 3.0 mi SSW 15.0 mph 20.7 mph N/A Snow Light Snow
3:15 AM 32.0 °F 22.5 °F 28.4 °F 87% 29.58 in 2.5 mi South 12.7 mph - N/A Rain Light Rain
3:35 AM 32.0 °F 22.5 °F 28.4 °F 87% 29.56 in 1.5 mi South 12.7 mph 16.1 mph N/A Rain Light Rain
3:55 AM 30.2 °F 19.3 °F 28.4 °F 93% 29.55 in 2.5 mi South 15.0 mph - N/A Rain Light Freezing Rain
4:15 AM 32.0 °F 21.6 °F 28.4 °F 87% 29.54 in 4.0 mi SSW 15.0 mph - N/A   Mostly Cloudy
4:35 AM 32.0 °F 24.2 °F 30.2 °F 93% 29.53 in 5.0 mi WNW 9.2 mph 17.3 mph N/A   Overcast
4:55 AM 32.0 °F 27.5 °F 30.2 °F 93% 29.52 in 5.0 mi North 4.6 mph - N/A   Overcast
5:15 AM 32.0 °F 27.5 °F 30.2 °F 93% 29.51 in 10.0 mi North 4.6 mph - N/A   Scattered Clouds
5:35 AM 32.0 °F 21.6 °F 30.2 °F 93% 29.51 in 10.0 mi SW 15.0 mph - N/A   Partly Cloudy
5:55 AM 32.0 °F 23.0 °F 30.2 °F 93% 29.51 in 10.0 mi SW 11.5 mph - N/A   Partly Cloudy
6:15 AM 32.0 °F 21.6 °F 32.0 °F 100% 29.51 in 10.0 mi SW 15.0 mph 20.7 mph N/A   Clear
6:35 AM 32.0 °F 22.1 °F 30.2 °F 93% 29.51 in 10.0 mi SW 13.8 mph - N/A   Partly Cloudy
6:55 AM 32.0 °F 20.8 °F 28.4 °F 87% 29.51 in 10.0 mi SW 17.3 mph - N/A   Partly Cloudy
7:15 AM 32.0 °F 22.1 °F 28.4 °F 87% 29.51 in 10.0 mi SW 13.8 mph - N/A   Clear
7:35 AM 32.0 °F 21.6 °F 26.6 °F 80% 29.53 in 10.0 mi West 15.0 mph 20.7 mph N/A   Clear
7:55 AM 32.0 °F 21.6 °F 26.6 °F 80% 29.53 in 10.0 mi West 15.0 mph 21.9 mph N/A   Clear
8:15 AM 32.0 °F 20.1 °F 26.6 °F 80% 29.54 in 10.0 mi West 19.6 mph - N/A   Clear
8:35 AM 32.0 °F 20.8 °F 26.6 °F 80% 29.56 in 10.0 mi West 17.3 mph 25.3 mph N/A   Clear
8:55 AM 32.0 °F 21.2 °F 24.8 °F 75% 29.57 in 10.0 mi West 16.1 mph - N/A   Clear
9:15 AM 32.0 °F 20.5 °F 24.8 °F 75% 29.59 in 10.0 mi West 18.4 mph 23.0 mph N/A   Clear
9:35 AM 32.0 °F 20.8 °F 24.8 °F 75% 29.60 in 10.0 mi West 17.3 mph 21.9 mph N/A   Clear
9:55 AM 32.0 °F 21.2 °F 24.8 °F 75% 29.61 in 10.0 mi West 16.1 mph 21.9 mph N/A   Clear
10:15 AM 32.0 °F 21.2 °F 24.8 °F 75% 29.62 in 10.0 mi West 16.1 mph - N/A   Clear
10:35 AM 32.0 °F 21.2 °F 24.8 °F 75% 29.63 in 10.0 mi West 16.1 mph - N/A   Clear
10:55 AM 32.0 °F 21.6 °F 24.8 °F 75% 29.63 in 10.0 mi West 15.0 mph - N/A   Clear
11:15 AM 32.0 °F 21.2 °F 24.8 °F 75% 29.64 in 10.0 mi West 16.1 mph 25.3 mph N/A   Clear
11:55 AM 32.0 °F 20.8 °F 24.8 °F 75% 29.65 in 10.0 mi West 17.3 mph - N/A   Clear
12:55 PM 32.0 °F 21.6 °F 24.8 °F 75% 29.66 in 10.0 mi West 15.0 mph 19.6 mph N/A   Clear
1:15 PM 33.8 °F 23.2 °F 24.8 °F 70% 29.66 in 10.0 mi West 17.3 mph - N/A   Clear
1:55 PM 33.8 °F 23.2 °F 24.8 °F 70% 29.67 in 10.0 mi West 17.3 mph 21.9 mph N/A   Clear
2:15 PM 35.6 °F 25.5 °F 24.8 °F 65% 29.68 in 10.0 mi West 17.3 mph 24.2 mph N/A   Clear
2:35 PM 35.6 °F 26.2 °F 24.8 °F 65% 29.70 in 10.0 mi West 15.0 mph - N/A   Partly Cloudy
2:55 PM 33.8 °F 22.8 °F 24.8 °F 70% 29.71 in 10.0 mi West 18.4 mph 25.3 mph N/A   Clear
3:15 PM 33.8 °F 22.8 °F 24.8 °F 70% 29.71 in 10.0 mi West 18.4 mph - N/A   Clear
3:35 PM 33.8 °F 22.5 °F 26.6 °F 75% 29.72 in 10.0 mi West 19.6 mph 26.5 mph N/A   Clear
3:55 PM 33.8 °F 22.2 °F 26.6 °F 75% 29.73 in 10.0 mi West 20.7 mph 29.9 mph N/A   Clear
4:15 PM 33.8 °F 23.2 °F 26.6 °F 75% 29.74 in 10.0 mi West 17.3 mph 26.5 mph N/A   Clear
4:35 PM 33.8 °F 22.8 °F 26.6 °F 75% 29.74 in 10.0 mi West 18.4 mph 24.2 mph N/A   Clear
4:55 PM 33.8 °F 23.2 °F 26.6 °F 75% 29.75 in 10.0 mi West 17.3 mph - N/A   Clear
5:15 PM 32.0 °F 20.8 °F 24.8 °F 75% 29.75 in 10.0 mi West 17.3 mph - N/A   Clear
5:35 PM 32.0 °F 20.1 °F 24.8 °F 75% 29.77 in 10.0 mi West 19.6 mph 25.3 mph N/A   Clear
5:55 PM 32.0 °F 20.1 °F 24.8 °F 75% 29.77 in 10.0 mi West 19.6 mph 27.6 mph N/A   Clear
6:15 PM 32.0 °F 20.5 °F 23.0 °F 69% 29.77 in 10.0 mi West 18.4 mph 27.6 mph N/A   Clear
6:35 PM 32.0 °F 19.2 °F 24.8 °F 75% 29.78 in 10.0 mi West 23.0 mph 27.6 mph N/A   Clear
6:55 PM 32.0 °F 19.2 °F 24.8 °F 75% 29.80 in 10.0 mi West 23.0 mph 29.9 mph N/A   Clear
7:15 PM 32.0 °F 19.5 °F 24.8 °F 75% 29.80 in 10.0 mi West 21.9 mph 36.8 mph N/A   Clear
7:35 PM 30.2 °F 18.1 °F 24.8 °F 80% 29.80 in 10.0 mi West 18.4 mph 25.3 mph N/A   Clear
7:55 PM 30.2 °F 16.5 °F 24.8 °F 80% 29.81 in 10.0 mi West 24.2 mph 31.1 mph N/A   Clear
8:15 PM 28.4 °F 14.7 °F 23.0 °F 80% 29.83 in 10.0 mi WNW 21.9 mph 28.8 mph N/A   Clear
8:35 PM 28.4 °F 15.8 °F 23.0 °F 80% 29.84 in 10.0 mi WNW 18.4 mph 25.3 mph N/A   Clear
8:55 PM 28.4 °F 15.4 °F 19.4 °F 69% 29.85 in 10.0 mi WNW 19.6 mph 28.8 mph N/A   Clear
9:15 PM 26.6 °F 13.4 °F 19.4 °F 74% 29.86 in 10.0 mi WNW 18.4 mph 27.6 mph N/A   Clear
9:35 PM 26.6 °F 13.1 °F 17.6 °F 69% 29.87 in 10.0 mi WNW 19.6 mph 24.2 mph N/A   Clear
9:55 PM 26.6 °F 14.3 °F 17.6 °F 69% 29.88 in 10.0 mi West 16.1 mph 21.9 mph N/A   Clear
10:15 PM 24.8 °F 13.4 °F 17.6 °F 74% 29.89 in 10.0 mi West 12.7 mph - N/A   Clear
10:35 PM 23.0 °F 11.7 °F 17.6 °F 80% 29.90 in 10.0 mi West 11.5 mph 17.3 mph N/A   Clear
10:55 PM 23.0 °F 12.4 °F 15.8 °F 74% 29.91 in 10.0 mi West 10.4 mph - N/A   Clear
11:35 PM 23.0 °F 11.7 °F 15.8 °F 74% 29.93 in 10.0 mi WSW 11.5 mph - N/A   Clear
11:55 PM 19.4 °F 10.4 °F 14.0 °F 80% 29.95 in 10.0 mi SW 6.9 mph - N/A   Clear